map of BLU home
BLU - Airport
Location
City:  Emigrant Gap, California, United States
Name:Blue Canyon - Nyack Airport
ICAO:KBLU
IATA:BLU
FAA LID:BLU

Details
Type:Airport (Airfield)
Use:Public/Civil
Latitude:3916'30"N (39.274972)
Longitude:12042'35"W (-120.709749)
Datum:WGS 1984
Elevation:5283 ft (1610 m)
Variation:13.46E (WMM2015v2 magnetic declination)
-0.08 annual change
Runways:1
Longest:3300 × 50 ft (1006 × 15 m), paved

Time
Time Zone:UTC-8 (DST-7)
Local Time:

Weather
METAR:KBLU 041417Z AUTO 17020G30KT 1/4SM SN FZFG VV003 M02/M03 A2939 RMK AO2 PK WND 18030/1417 P0001 T10171033

Related Locations
Nearby:
Farthest:FTU: 11219 mi / 18055 km
Tolagnaro [Maurillac Airport (Fort Dauphin Airport)], MG

Find:

   beyond  
but within

Other Information
Maps:
NOTAMs:
Links:
Sources:

  
  • flag of United States
  • flag of California
  

Sectional Chart

Flight Planning
at skyvector.com

Satellite Image

Google Maps Satellite view

 

Copyright © 2004-2019 Karl L. Swartz. All rights reserved.
The Great Circle Mapper name and logo are trademarks of the Great Circle Mapper.
All other trademarks mentioned herein belong to their respective owners.
Please see credits for attibutions and further copyright information.

  Follow gcmap on Facebook Follow gcmap on Twitter GCmap on LinkedIn

hCard Microformat

Geo Microformat